#timestamp,LO_Frequency,Hit,StdDev 
1634122815.4,286046999.7,N
1634122835.3,286047002.0,N
1634122855.1,286047003.9,N
1634122875.8,286047004.0,N
1634122895.7,286047003.9,N
1634122915.5,286047002.2,N
1634122935.4,286047002.4,N
1634122955.2,286047002.1,N
1634122975.0,286046999.9,N
1634122975.9,286046999.9,N
1634122995.8,286046999.8,N
1634123015.6,286047000.0,N
1634123035.4,286046999.7,N
1634123055.3,286047000.2,N
1634123075.1,286047000.3,N
1634123095.9,286047002.7,N
1634123115.7,286047001.4,N
1634123135.5,286047003.9,N
1634123155.4,286047001.3,N
1634123175.2,286047004.3,N
1634123195.0,286047004.2,N
1634123196.0,286047004.2,N
1634123215.8,286047003.7,N
1634123235.6,286047001.7,N
1634123255.7,286047004.1,N
1634123275.6,286047003.6,N
1634123295.4,286047003.7,N
1634123315.3,286047001.9,N
1634123335.1,286047002.1,N
1634123355.8,286047002.1,N
1634123375.7,286047001.5,N
1634123395.5,286047001.8,N
1634123415.4,286047001.4,N
1634123435.2,286047001.8,N
1634123455.0,286047004.0,N
1634123455.9,286047004.0,N
1634123475.8,286047003.4,N
1634123495.6,286047003.9,N
1634123515.4,286047001.4,N
1634123535.3,286047001.8,N
1634123555.1,286047004.0,N
1634123575.9,286047004.0,N
1634123595.7,286047004.0,N
1634123615.5,286047003.7,N
1634123635.4,286047003.7,Y
1634123655.2,286047002.4,P
1634123675.0,286046999.9,N
1634123676.0,286046999.9,N
1634123695.8,286047000.0,N
1634123715.6,286047001.0,N
1634123735.5,286047000.6,N
1634123755.3,286047000.3,N
1634123775.1,286047000.5,N
1634123795.9,286047000.3,N
1634123815.7,286047002.2,N
1634123835.6,286046999.9,N
1634123855.4,286047000.9,N
1634123875.2,286047000.3,N
1634123895.1,286047001.0,N
1634123896.0,286047001.0,N
1634123915.8,286047000.8,N
1634123935.6,286047000.3,N
1634123955.5,286047000.4,N
1634123975.3,286046999.9,N
1634123995.2,286047000.7,N
1634124015.9,286047000.4,N
1634124035.7,286047002.7,Y
1634124055.6,286046999.9,P
1634124075.4,286047000.0,N
1634124095.3,286047002.4,P
1634124115.1,286047002.5,N
1634124116.0,286047002.5,N
1634124135.8,286046999.7,N
1634124155.7,286047000.5,N
1634124175.5,286047002.7,N
1634124195.3,286047000.5,N
1634124215.2,286046999.7,N
1634124235.0,286047000.7,N
1634124235.9,286047000.7,N
1634124255.8,286047000.5,N
1634124275.6,286046998.5,N
1634124295.4,286047001.2,N
1634124315.3,286047001.0,N
1634124335.1,286047000.9,N
1634124355.9,286047000.2,N
1634124375.7,286047000.6,N
1634124395.5,286046998.7,N
1634124415.4,286047000.3,N
1634124435.2,286046999.1,N
1634124455.0,286046998.9,N
1634124455.9,286046998.9,N
1634124475.8,286046996.9,N
1634124495.6,286046996.9,N
1634124515.5,286046999.1,N
1634124535.3,286046998.9,N
1634124555.1,286046998.7,N
1634124575.9,286047000.8,N
1634124595.7,286047000.5,N
1634124615.6,286047000.2,N
1634124635.4,286047000.3,N
1634124655.2,286046999.9,N
1634124675.1,286047000.3,N
1634124676.0,286047000.3,N
1634124695.8,286047001.1,N
1634124715.6,286046998.8,N
1634124735.5,286046998.3,N
1634124755.3,286046999.4,N
1634124775.1,286046999.3,N
1634124795.9,286046998.8,N
1634124815.7,286046999.1,N
1634124835.6,286046999.6,N
1634124855.4,286046998.7,N
1634124875.2,286046998.3,N
1634124895.1,286046998.6,N
1634124896.0,286046998.6,N
1634124915.8,286047000.3,N
1634124935.6,286046999.9,N
1634124955.5,286047000.3,N
1634124975.3,286047000.5,N
1634124995.2,286046999.8,N
1634125015.9,286047001.9,N
1634125035.7,286047002.5,N
1634125055.6,286046999.8,N
1634125075.4,286047000.1,N
1634125095.2,286047001.9,N
1634125115.1,286047002.5,N
1634125116.0,286047002.5,N
1634125135.8,286047002.0,N
1634125155.7,286047002.6,N
1634125175.5,286047000.4,N
1634125195.3,286047001.0,N
1634125215.2,286047000.3,N
1634125235.0,286047000.5,N
1634125235.9,286047000.5,N
1634125255.7,286047000.0,N
1634125275.6,286047000.0,N
1634125295.4,286047000.0,N
1634125315.3,286047000.2,N
1634125335.1,286047002.1,N
1634125336.0,286047002.1,N
1634125355.8,286047002.3,N
1634125375.7,286046999.7,N
1634125395.5,286047002.1,N
1634125415.3,286047002.3,N
1634125435.2,286047000.4,N
1634125455.0,286047000.3,N
1634125455.9,286047000.3,N
1634125475.8,286046998.7,N
1634125495.6,286047000.9,N
1634125545.5,286047000.1,E
1634125555.4,286046999.7,N
1634125575.2,286046999.7,P
1634125595.1,286047000.2,P
1634125596.0,286047000.2,N
1634125615.8,286047002.4,Y
1634125635.6,286047002.8,P
1634125655.5,286047002.2,N
1634125675.3,286047002.1,N
1634125695.1,286047002.6,N
1634125715.9,286046999.7,N
1634125735.7,286046999.7,N
1634125755.6,286047002.4,N
1634125775.4,286047000.1,N
1634125795.2,286047000.0,N
1634125815.1,286047000.5,N
1634125816.0,286047000.5,N
1634125835.8,286047002.3,N
1634125855.6,286047000.0,N
1634125875.5,286047002.7,N
1634125895.3,286047002.7,N
1634125915.2,286047002.8,N
1634125935.9,286047002.4,N
1634125955.7,286047000.3,N
1634125975.6,286047000.1,N
1634125995.4,286046999.9,N
1634126015.2,286047001.0,N
1634126035.1,286047001.0,N
1634126036.0,286047001.0,N
1634126055.8,286047000.6,N
1634126075.7,286046999.9,N
1634126095.5,286047000.5,N
1634126115.3,286047002.8,N
1634126135.2,286047001.4,N
1634126155.0,286047001.4,N
1634126155.9,286047001.4,N
1634126175.8,286047004.2,Y
1634126195.6,286047002.1,P
1634126215.4,286047002.2,P
1634126235.3,286047000.3,N
1634126255.1,286047001.0,N
1634126275.8,286046998.5,N
1634126295.7,286046998.4,N
1634126315.5,286047000.8,N
1634126335.3,286047001.1,N
1634126355.2,286046998.1,N
1634126375.0,286047000.8,N
1634126375.9,286047000.8,N
1634126395.8,286046998.7,N
